Time,TemperatureF,DewpointF,PressureIn,WindDirection,WindDirectionDegrees,WindSpeedMPH,WindSpeedGustMPH,Humidity,HourlyPrecipIn,Conditions,Clouds,dailyrainin,SoftwareType,DateUTC
2013-03-06 00:01:00,32.0,32.0,-100.00,North,2,15.0,17.0,100,-99.99,,,-99.99,,2013-03-06 08:01:00,
2013-03-06 00:11:00,32.0,32.0,-100.00,North,360,14.0,17.0,100,-99.99,,,-99.99,,2013-03-06 08:11:00,
2013-03-06 00:21:00,32.0,32.0,-100.00,North,356,14.0,17.0,100,-99.99,,,-99.99,,2013-03-06 08:21:00,
2013-03-06 00:31:00,32.0,32.0,-100.00,North,2,13.0,17.0,100,-99.99,,,-99.99,,2013-03-06 08:31:00,
2013-03-06 00:42:00,32.0,32.0,-100.00,North,3,15.0,18.0,100,-99.99,,,-99.99,,2013-03-06 08:42:00,
2013-03-06 00:52:00,32.0,32.0,-100.00,North,2,13.0,17.0,100,-99.99,,,-99.99,,2013-03-06 08:52:00,
2013-03-06 01:01:00,32.0,32.0,-100.00,North,2,13.0,17.0,100,-99.99,,,-99.99,,2013-03-06 09:01:00,
2013-03-06 01:12:00,32.0,32.0,-100.00,North,7,15.0,18.0,100,-99.99,,,-99.99,,2013-03-06 09:12:00,
2013-03-06 01:21:00,32.0,32.0,-100.00,North,4,17.0,20.0,100,-99.99,,,-99.99,,2013-03-06 09:21:00,
2013-03-06 01:31:00,32.0,32.0,-100.00,North,3,16.0,18.0,100,-99.99,,,-99.99,,2013-03-06 09:31:00,
2013-03-06 01:41:00,32.0,32.0,-100.00,North,4,15.0,19.0,100,-99.99,,,-99.99,,2013-03-06 09:41:00,
2013-03-06 01:51:00,32.0,32.0,-100.00,North,359,15.0,18.0,100,-99.99,,,-99.99,,2013-03-06 09:51:00,
2013-03-06 02:01:00,32.0,32.0,-100.00,North,358,15.0,17.0,100,-99.99,,,-99.99,,2013-03-06 10:01:00,
2013-03-06 02:11:00,32.0,32.0,-100.00,North,355,15.0,17.0,100,-99.99,,,-99.99,,2013-03-06 10:11:00,
2013-03-06 02:21:00,32.0,32.0,-100.00,North,356,14.0,17.0,100,-99.99,,,-99.99,,2013-03-06 10:21:00,
2013-03-06 02:31:00,32.0,32.0,-100.00,North,360,14.0,18.0,100,-99.99,,,-99.99,,2013-03-06 10:31:00,
2013-03-06 02:42:00,32.0,32.0,-100.00,North,3,15.0,19.0,100,-99.99,,,-99.99,,2013-03-06 10:42:00,
2013-03-06 02:51:00,32.0,32.0,-100.00,North,2,13.0,16.0,100,-99.99,,,-99.99,,2013-03-06 10:51:00,
2013-03-06 03:02:00,32.0,32.0,-100.00,North,2,13.0,16.0,100,-99.99,,,-99.99,,2013-03-06 11:02:00,
2013-03-06 03:11:00,32.0,32.0,-100.00,NNW,348,13.0,15.0,100,-99.99,,,-99.99,,2013-03-06 11:11:00,
2013-03-06 03:22:00,32.0,32.0,-100.00,NNW,342,12.0,13.0,100,-99.99,,,-99.99,,2013-03-06 11:22:00,
2013-03-06 03:32:00,32.0,32.0,-100.00,North,357,12.0,14.0,100,-99.99,,,-99.99,,2013-03-06 11:32:00,
2013-03-06 03:42:00,32.0,32.0,-100.00,North,3,13.0,14.0,100,-99.99,,,-99.99,,2013-03-06 11:42:00,
2013-03-06 03:52:00,32.0,32.0,-100.00,North,4,11.0,13.0,100,-99.99,,,-99.99,,2013-03-06 11:52:00,
2013-03-06 04:01:00,32.0,32.0,-100.00,North,4,11.0,12.0,100,-99.99,,,-99.99,,2013-03-06 12:01:00,
2013-03-06 04:11:00,32.0,32.0,-100.00,North,3,10.0,12.0,100,-99.99,,,-99.99,,2013-03-06 12:11:00,
2013-03-06 04:21:00,32.0,32.0,-100.00,NNE,18,10.0,12.0,100,-99.99,,,-99.99,,2013-03-06 12:21:00,
2013-03-06 04:32:00,32.0,32.0,-100.00,NNE,18,10.0,12.0,100,-99.99,,,-99.99,,2013-03-06 12:32:00,
2013-03-06 04:42:00,32.0,32.0,-100.00,NNE,16,10.0,12.0,100,-99.99,,,-99.99,,2013-03-06 12:42:00,
2013-03-06 04:52:00,32.0,32.0,-100.00,NNE,13,9.0,10.0,100,-99.99,,,-99.99,,2013-03-06 12:52:00,
2013-03-06 05:01:00,32.0,32.0,-100.00,NNE,17,9.0,10.0,100,-99.99,,,-99.99,,2013-03-06 13:01:00,
2013-03-06 05:11:00,32.0,32.0,-100.00,NNE,18,9.0,10.0,100,-99.99,,,-99.99,,2013-03-06 13:11:00,
2013-03-06 05:21:00,32.0,32.0,-100.00,NNE,16,8.0,9.0,100,-99.99,,,-99.99,,2013-03-06 13:21:00,
2013-03-06 05:32:00,32.0,32.0,-100.00,North,4,7.0,8.0,100,-99.99,,,-99.99,,2013-03-06 13:32:00,
2013-03-06 05:42:00,32.0,32.0,-100.00,North,2,7.0,7.0,100,-99.99,,,-99.99,,2013-03-06 13:42:00,
2013-03-06 05:51:00,32.0,32.0,-100.00,North,5,6.0,7.0,100,-99.99,,,-99.99,,2013-03-06 13:51:00,
2013-03-06 06:01:00,32.0,32.0,-100.00,North,7,6.0,7.0,100,-99.99,,,-99.99,,2013-03-06 14:01:00,
2013-03-06 06:11:00,32.0,32.0,-100.00,North,5,6.0,6.0,100,-99.99,,,-99.99,,2013-03-06 14:11:00,
2013-03-06 06:21:00,32.0,32.0,-100.00,NNE,18,6.0,7.0,100,-99.99,,,-99.99,,2013-03-06 14:21:00,
2013-03-06 06:32:00,31.0,31.0,-100.00,NNE,18,7.0,8.0,100,-99.99,,,-99.99,,2013-03-06 14:32:00,
2013-03-06 06:42:00,31.0,31.0,-100.00,NNE,16,7.0,8.0,100,-99.99,,,-99.99,,2013-03-06 14:42:00,
2013-03-06 06:52:00,31.0,31.0,-100.00,NNE,13,7.0,9.0,100,-99.99,,,-99.99,,2013-03-06 14:52:00,
2013-03-06 07:01:00,31.0,31.0,-100.00,North,10,7.0,8.0,100,-99.99,,,-99.99,,2013-03-06 15:01:00,
2013-03-06 07:11:00,31.0,31.0,-100.00,NNE,12,7.0,8.0,100,-99.99,,,-99.99,,2013-03-06 15:11:00,
2013-03-06 07:21:00,31.0,31.0,-100.00,North,9,7.0,7.0,100,-99.99,,,-99.99,,2013-03-06 15:21:00,
2013-03-06 07:32:00,31.0,31.0,-100.00,North,9,6.0,8.0,100,-99.99,,,-99.99,,2013-03-06 15:32:00,
2013-03-06 07:42:00,31.0,31.0,-100.00,North,7,6.0,8.0,100,-99.99,,,-99.99,,2013-03-06 15:42:00,
2013-03-06 07:52:00,31.0,31.0,-100.00,North,7,6.0,8.0,100,-99.99,,,-99.99,,2013-03-06 15:52:00,
2013-03-06 08:01:00,31.0,31.0,-100.00,NNE,15,9.0,10.0,100,-99.99,,,-99.99,,2013-03-06 16:01:00,
2013-03-06 08:11:00,31.0,31.0,-100.00,NNE,14,9.0,10.0,100,-99.99,,,-99.99,,2013-03-06 16:11:00,
2013-03-06 08:21:00,31.0,31.0,-100.00,NNE,16,9.0,10.0,100,-99.99,,,-99.99,,2013-03-06 16:21:00,
2013-03-06 08:32:00,31.0,31.0,-100.00,NNE,14,9.0,10.0,100,-99.99,,,-99.99,,2013-03-06 16:32:00,
2013-03-06 08:42:00,31.0,31.0,-100.00,NNE,15,9.0,11.0,100,-99.99,,,-99.99,,2013-03-06 16:42:00,
2013-03-06 08:52:00,31.0,31.0,-100.00,North,11,9.0,11.0,100,-99.99,,,-99.99,,2013-03-06 16:52:00,
2013-03-06 09:01:00,31.0,31.0,-100.00,North,10,10.0,11.0,100,-99.99,,,-99.99,,2013-03-06 17:01:00,
2013-03-06 09:11:00,32.0,32.0,-100.00,NNE,13,9.0,9.0,100,-99.99,,,-99.99,,2013-03-06 17:11:00,
2013-03-06 09:21:00,32.0,32.0,-100.00,NNE,12,8.0,10.0,100,-99.99,,,-99.99,,2013-03-06 17:21:00,
2013-03-06 09:32:00,32.0,32.0,-100.00,North,6,11.0,12.0,100,-99.99,,,-99.99,,2013-03-06 17:32:00,
2013-03-06 09:41:00,32.0,32.0,-100.00,North,354,9.0,11.0,100,-99.99,,,-99.99,,2013-03-06 17:41:00,
2013-03-06 09:52:00,32.0,32.0,-100.00,North,351,8.0,12.0,100,-99.99,,,-99.99,,2013-03-06 17:52:00,
2013-03-06 10:01:00,32.0,32.0,-100.00,North,351,9.0,11.0,100,-99.99,,,-99.99,,2013-03-06 18:01:00,
2013-03-06 10:28:00,32.0,32.0,-100.00,NNW,344,8.0,10.0,100,-99.99,,,-99.99,,2013-03-06 18:28:00,
2013-03-06 10:42:00,33.0,33.0,-100.00,NNW,345,12.0,14.0,100,-99.99,,,-99.99,,2013-03-06 18:42:00,
2013-03-06 10:52:00,33.0,33.0,-100.00,NNW,341,13.0,15.0,100,-99.99,,,-99.99,,2013-03-06 18:52:00,
2013-03-06 11:02:00,33.0,33.0,-100.00,North,349,12.0,14.0,100,-99.99,,,-99.99,,2013-03-06 19:02:00,
2013-03-06 11:11:00,34.0,34.0,-100.00,North,350,10.0,13.0,100,-99.99,,,-99.99,,2013-03-06 19:11:00,
2013-03-06 11:21:00,33.0,33.0,-100.00,NNW,348,11.0,12.0,100,-99.99,,,-99.99,,2013-03-06 19:21:00,
2013-03-06 11:32:00,34.0,34.0,-100.00,North,354,9.0,12.0,100,-99.99,,,-99.99,,2013-03-06 19:32:00,
2013-03-06 11:43:00,34.0,34.0,-100.00,West,269,6.0,11.0,100,-99.99,,,-99.99,,2013-03-06 19:43:00,
2013-03-06 11:52:00,34.0,34.0,-100.00,SW,229,8.0,11.0,100,-99.99,,,-99.99,,2013-03-06 19:52:00,
2013-03-06 12:01:00,34.0,34.0,-100.00,NW,305,3.0,6.0,100,-99.99,,,-99.99,,2013-03-06 20:01:00,
2013-03-06 12:11:00,34.0,34.0,-100.00,North,352,9.0,10.0,100,-99.99,,,-99.99,,2013-03-06 20:11:00,
2013-03-06 12:22:00,35.0,35.0,-100.00,NNW,336,6.0,7.0,100,-99.99,,,-99.99,,2013-03-06 20:22:00,
2013-03-06 12:32:00,36.0,36.0,-100.00,WNW,287,6.0,11.0,100,-99.99,,,-99.99,,2013-03-06 20:32:00,
2013-03-06 12:42:00,36.0,36.0,-100.00,WNW,289,4.0,5.0,100,-99.99,,,-99.99,,2013-03-06 20:42:00,
2013-03-06 12:52:00,36.0,36.0,-100.00,NW,313,3.0,4.0,100,-99.99,,,-99.99,,2013-03-06 20:52:00,
2013-03-06 13:02:00,36.0,36.0,-100.00,NW,311,4.0,6.0,100,-99.99,,,-99.99,,2013-03-06 21:02:00,
2013-03-06 13:11:00,36.0,36.0,-100.00,NW,323,7.0,8.0,100,-99.99,,,-99.99,,2013-03-06 21:11:00,
2013-03-06 13:22:00,37.0,37.0,-100.00,NW,311,7.0,11.0,100,-99.99,,,-99.99,,2013-03-06 21:22:00,
2013-03-06 13:32:00,37.0,37.0,-100.00,WNW,289,7.0,10.0,100,-99.99,,,-99.99,,2013-03-06 21:32:00,
2013-03-06 13:42:00,38.0,38.0,-100.00,WSW,249,9.0,12.0,100,-99.99,,,-99.99,,2013-03-06 21:42:00,
2013-03-06 13:51:00,38.0,38.0,-100.00,SW,236,13.0,15.0,100,-99.99,,,-99.99,,2013-03-06 21:51:00,
2013-03-06 14:01:00,38.0,38.0,-100.00,SW,228,22.0,25.0,100,-99.99,,,-99.99,,2013-03-06 22:01:00,
2013-03-06 14:11:00,38.0,38.0,-100.00,SW,220,25.0,30.0,100,-99.99,,,-99.99,,2013-03-06 22:11:00,
2013-03-06 14:21:00,38.0,38.0,-100.00,SW,221,25.0,30.0,100,-99.99,,,-99.99,,2013-03-06 22:21:00,
2013-03-06 14:32:00,38.0,38.0,-100.00,SW,219,23.0,27.0,100,-99.99,,,-99.99,,2013-03-06 22:32:00,
2013-03-06 14:41:00,38.0,38.0,-100.00,SW,216,25.0,30.0,100,-99.99,,,-99.99,,2013-03-06 22:41:00,
2013-03-06 14:51:00,38.0,38.0,-100.00,SW,216,25.0,32.0,100,-99.99,,,-99.99,,2013-03-06 22:51:00,
2013-03-06 15:01:00,38.0,38.0,-100.00,SW,219,26.0,34.0,100,-99.99,,,-99.99,,2013-03-06 23:01:00,
2013-03-06 15:11:00,38.0,38.0,-100.00,SW,225,27.0,34.0,100,-99.99,,,-99.99,,2013-03-06 23:11:00,
2013-03-06 15:21:00,37.0,37.0,-100.00,SW,229,34.0,38.0,100,-99.99,,,-99.99,,2013-03-06 23:21:00,
2013-03-06 15:31:00,37.0,37.0,-100.00,SW,228,34.0,39.0,100,-99.99,,,-99.99,,2013-03-06 23:31:00,
2013-03-06 15:41:00,38.0,38.0,-100.00,SW,229,36.0,41.0,100,-99.99,,,-99.99,,2013-03-06 23:41:00,
2013-03-06 15:52:00,37.0,37.0,-100.00,SW,231,40.0,48.0,100,-99.99,,,-99.99,,2013-03-06 23:52:00,
2013-03-06 16:01:00,36.0,36.0,-100.00,SW,231,42.0,49.0,100,-99.99,,,-99.99,,2013-03-07 00:01:00,
2013-03-06 16:11:00,36.0,36.0,-100.00,SW,231,46.0,51.0,100,-99.99,,,-99.99,,2013-03-07 00:11:00,
2013-03-06 16:21:00,36.0,36.0,-100.00,SW,232,44.0,52.0,100,-99.99,,,-99.99,,2013-03-07 00:21:00,
2013-03-06 16:32:00,35.0,35.0,-100.00,SW,233,43.0,49.0,100,-99.99,,,-99.99,,2013-03-07 00:32:00,
2013-03-06 16:41:00,35.0,35.0,-100.00,SW,233,43.0,49.0,100,-99.99,,,-99.99,,2013-03-07 00:41:00,
2013-03-06 16:51:00,35.0,35.0,-100.00,SW,230,43.0,49.0,100,-99.99,,,-99.99,,2013-03-07 00:51:00,
2013-03-06 17:01:00,34.0,34.0,-100.00,SW,232,45.0,54.0,100,-99.99,,,-99.99,,2013-03-07 01:01:00,
2013-03-06 17:11:00,34.0,34.0,-100.00,SW,231,47.0,51.0,100,-99.99,,,-99.99,,2013-03-07 01:11:00,
2013-03-06 17:21:00,34.0,34.0,-100.00,SW,233,48.0,54.0,100,-99.99,,,-99.99,,2013-03-07 01:21:00,
2013-03-06 17:31:00,34.0,34.0,-100.00,SW,234,52.0,60.0,100,-99.99,,,-99.99,,2013-03-07 01:31:00,
2013-03-06 17:41:00,33.0,33.0,-100.00,SW,230,55.0,63.0,100,-99.99,,,-99.99,,2013-03-07 01:41:00,
2013-03-06 17:50:00,33.0,33.0,-100.00,SW,231,55.0,61.0,100,-99.99,,,-99.99,,2013-03-07 01:50:00,
2013-03-06 17:51:00,33.0,33.0,-100.00,SW,232,59.0,68.0,100,-99.99,,,-99.99,,2013-03-07 01:51:00,
2013-03-06 18:01:00,33.0,33.0,-100.00,SW,230,53.0,58.0,100,-99.99,,,-99.99,,2013-03-07 02:01:00,
2013-03-06 18:11:00,33.0,33.0,-100.00,SW,229,54.0,61.0,100,-99.99,,,-99.99,,2013-03-07 02:11:00,
2013-03-06 18:21:00,33.0,33.0,-100.00,SW,229,56.0,65.0,100,-99.99,,,-99.99,,2013-03-07 02:21:00,
2013-03-06 18:31:00,33.0,33.0,-100.00,SW,231,55.0,61.0,100,-99.99,,,-99.99,,2013-03-07 02:31:00,
2013-03-06 18:41:00,33.0,33.0,-100.00,SW,231,55.0,61.0,100,-99.99,,,-99.99,,2013-03-07 02:41:00,
2013-03-06 19:01:00,34.0,34.0,-100.00,SW,230,48.0,54.0,100,-99.99,,,-99.99,,2013-03-07 03:01:00,
2013-03-06 19:11:00,34.0,34.0,-100.00,SW,231,48.0,54.0,100,-99.99,,,-99.99,,2013-03-07 03:11:00,
2013-03-06 19:21:00,34.0,34.0,-100.00,SW,232,48.0,52.0,100,-99.99,,,-99.99,,2013-03-07 03:21:00,
2013-03-06 19:31:00,34.0,34.0,-100.00,SW,231,47.0,53.0,100,-99.99,,,-99.99,,2013-03-07 03:31:00,
2013-03-06 19:41:00,34.0,34.0,-100.00,SW,229,47.0,51.0,100,-99.99,,,-99.99,,2013-03-07 03:41:00,
2013-03-06 19:51:00,34.0,34.0,-100.00,SW,231,47.0,53.0,100,-99.99,,,-99.99,,2013-03-07 03:51:00,
2013-03-06 20:01:00,34.0,34.0,-100.00,SW,232,46.0,52.0,100,-99.99,,,-99.99,,2013-03-07 04:01:00,
2013-03-06 20:11:00,34.0,34.0,-100.00,SW,231,47.0,54.0,100,-99.99,,,-99.99,,2013-03-07 04:11:00,
2013-03-06 20:21:00,34.0,34.0,-100.00,SW,232,48.0,54.0,100,-99.99,,,-99.99,,2013-03-07 04:21:00,
2013-03-06 20:31:00,34.0,34.0,-100.00,SW,231,47.0,52.0,100,-99.99,,,-99.99,,2013-03-07 04:31:00,
2013-03-06 20:41:00,34.0,34.0,-100.00,SW,233,48.0,55.0,100,-99.99,,,-99.99,,2013-03-07 04:41:00,
2013-03-06 20:51:00,34.0,34.0,-100.00,SW,231,47.0,52.0,100,-99.99,,,-99.99,,2013-03-07 04:51:00,
2013-03-06 21:01:00,34.0,34.0,-100.00,SW,231,47.0,51.0,100,-99.99,,,-99.99,,2013-03-07 05:01:00,
2013-03-06 21:12:00,34.0,34.0,-100.00,SW,232,45.0,50.0,100,-99.99,,,-99.99,,2013-03-07 05:12:00,
2013-03-06 21:22:00,34.0,34.0,-100.00,SW,232,43.0,47.0,100,-99.99,,,-99.99,,2013-03-07 05:22:00,
2013-03-06 21:32:00,34.0,34.0,-100.00,SW,234,46.0,52.0,100,-99.99,,,-99.99,,2013-03-07 05:32:00,
2013-03-06 21:41:00,34.0,34.0,-100.00,SW,234,46.0,52.0,100,-99.99,,,-99.99,,2013-03-07 05:41:00,
2013-03-06 21:52:00,34.0,34.0,-100.00,SW,232,45.0,49.0,100,-99.99,,,-99.99,,2013-03-07 05:52:00,
2013-03-06 22:01:00,34.0,34.0,-100.00,SW,224,42.0,46.0,100,-99.99,,,-99.99,,2013-03-07 06:01:00,
2013-03-06 22:11:00,34.0,34.0,-100.00,SW,229,43.0,50.0,100,-99.99,,,-99.99,,2013-03-07 06:11:00,
2013-03-06 22:21:00,34.0,34.0,-100.00,SW,228,44.0,51.0,100,-99.99,,,-99.99,,2013-03-07 06:21:00,
2013-03-06 22:31:00,34.0,34.0,-100.00,SW,226,43.0,50.0,100,-99.99,,,-99.99,,2013-03-07 06:31:00,
2013-03-06 22:41:00,34.0,34.0,-100.00,SW,226,43.0,46.0,100,-99.99,,,-99.99,,2013-03-07 06:41:00,
2013-03-06 22:51:00,34.0,34.0,-100.00,SW,229,45.0,52.0,100,-99.99,,,-99.99,,2013-03-07 06:51:00,
2013-03-06 23:01:00,34.0,34.0,-100.00,SW,229,45.0,52.0,100,-99.99,,,-99.99,,2013-03-07 07:01:00,
2013-03-06 23:11:00,34.0,34.0,-100.00,SW,226,39.0,43.0,100,-99.99,,,-99.99,,2013-03-07 07:11:00,
2013-03-06 23:21:00,34.0,34.0,-100.00,SW,227,39.0,43.0,100,-99.99,,,-99.99,,2013-03-07 07:21:00,
2013-03-06 23:31:00,34.0,34.0,-100.00,SW,230,36.0,39.0,100,-99.99,,,-99.99,,2013-03-07 07:31:00,
2013-03-06 23:42:00,34.0,34.0,-100.00,SW,227,37.0,40.0,100,-99.99,,,-99.99,,2013-03-07 07:42:00,
2013-03-06 23:52:00,34.0,34.0,-100.00,SW,224,38.0,42.0,100,-99.99,,,-99.99,,2013-03-07 07:52:00,